Regional Weather Roundup
Issued by NWS Sioux Falls, SD

Home | Current Version | Previous Version | Graphics & Text | Print | Product List | Glossary On
Versions: 1 2 3 4 5 6 7 8 9 10 11 12 13 14 15 16 17 18 19 20 21 22 23 24 25 26 27 28 29 30 31 32 33 34 35 36 37 38 39 40 41 42 43 44 45 46 47 48 49 50
000
ASUS43 KFSD 280502
RWRFSD

WEATHER ROUNDUP FOR SE SOUTH DAKOTA/SW MINNESOTA/NW IOWA
NATIONAL WEATHER SERVICE SIOUX FALLS SD
1100 PM CST MON FEB 27 2017

NOTE: "FAIR" INDICATES FEW OR NO CLOUDS BELOW 12,000 FEET WITH NO
SIGNIFICANT WEATHER AND OR OBSTRUCTIONS TO VISIBILITY.


SDZ038>040-050-052>070-280600-
SOUTHEAST SOUTH DAKOTA

CITY           SKY/WX    TMP DP  RH WIND       PRES   REMARKS
BROOKINGS      CLOUDY    36  30  79 NE3       29.72F
CHAMBERLAIN    CLOUDY    35  28  76 NE7       29.69S WCI  29
HURON          CLOUDY    30  27  88 CALM      29.72F
MADISON        CLOUDY    32  32 100 E8        29.70F WCI  25
MITCHELL       CLOUDY    28  27  96 NW5       29.71F WCI  23
SIOUX FALLS    PTCLDY    36  31  82 E8        29.71F
WINNER         FAIR      34  29  82 CALM      29.68S
YANKTON        CLEAR     34  28  80 E8        29.69R WCI  27
$$

MNZ071-072-080-081-089-090-097-098-280600-
SOUTHWEST MINNESOTA

CITY           SKY/WX    TMP DP  RH WIND       PRES   REMARKS
FAIRMONT       CLOUDY    37  31  78 S14       29.79F
JACKSON        CLOUDY    37  32  81 S7        29.76F
LUVERNE        MOCLDY    36  30  80 SE5       29.74F
MARSHALL       CLEAR     32  28  85 SE5       29.77S WCI  27
MONTEVIDEO     CLOUDY    34  28  80 CALM      29.81R
PIPESTONE      PTCLDY    36  27  69 SE5       29.73S
REDWOOD FALLS  CLOUDY    35  29  78 SE8       29.78F WCI  29
TRACY          CLEAR     33  30  91 SE6       29.76S WCI  27
WINDOM         CLOUDY    34  30  86 E5        29.77F WCI  30
$$

IAZ001>003-012>014-020>022-031-032-NEZ013-014-SDZ071-280600-
NORTHWEST IOWA

CITY           SKY/WX    TMP DP  RH WIND       PRES   REMARKS
CHEROKEE       MOCLDY    35  32  87 CALM      29.75F
DENISON        CLOUDY    41  30  65 VRB3      29.72S
ESTHERVILLE    CLOUDY    35  32  88 SE9       29.77F WCI  28
LE MARS        PTCLDY    34  30  86 CALM      29.72F
SHELDON        MOCLDY    36  36 100 SE5       29.72F
SIOUX CITY     CLEAR     39  29  67 E10       29.70F
SPENCER        CLOUDY    36  31  82 E8        29.76F
STORM LAKE     CLOUDY    36  32  87 E9        29.75F
$$

ABBREVIATIONS USED IN REMARKS
   TC - TEMPERATURE IN CELSIUS
  WCI - WIND CHILL INDEX
   HX - HEAT INDEX
  VSB - VISIBILITY




USA.gov is the U.S. government's official web portal to all federal, state and local government web resources and services.